Wind_Speed
15 14 14 13 13 13 13 12 12 11 11 11 11 10 10 10 9 9 9 8 8 7 7 7 7 8 7 7 7 7 7 7 6 6 6 7 8 9 10 9 9 9 9 9 10 9 9 8 8 9 9 10 11 11 11 10 11 11 12 12 12 13 14 15 16 15 14 14 15 14 14 14 15 14 13 13 12 12 12 12 12 12 14 15 15
14 15 16 15 15 15 15 14 13 13 13 12 12 12 12 12 11 11 10 10 10 9 9 9 9 9 9 8 8 8 7 7 7 7 8 9 11 12 12 11 11 12 12 12 11 10 10 10 11 12 12 13 13 12 12 12 12 12 13 14 14 13 14 15 17 17 16 15 16 16 15 15 16 14 14 14 14 14 14 13 13 13 14 14 15
16 17 17 18 17 17 16 16 16 16 15 15 14 14 14 13 13 13 12 12 12 11 11 11 11 10 10 10 10 9 9 9 9 9 11 12 13 13 13 14 14 15 15 14 12 11 12 13 14 14 14 15 15 14 14 14 13 14 15 16 16 16 16 16 16 18 19 18 17 16 17 17 17 16 15 16 17 16 16 15 15 15 16 16 17
19 17 18 19 19 20 19 18 18 17 17 17 16 16 15 14 14 14 14 14 14 14 13 14 13 13 12 12 12 12 12 11 11 12 13 14 15 15 15 16 17 17 17 16 14 14 15 16 16 16 16 16 16 16 16 15 15 15 16 17 18 18 19 18 18 18 20 20 19 18 18 18 19 18 17 18 18 17 18 18 18 18 18 18 19
21 18 18 20 21 22 22 21 20 19 18 18 18 17 16 16 16 15 15 15 15 14 14 13 14 14 14 14 14 14 14 14 15 15 16 16 17 17 17 18 19 19 19 18 17 17 18 18 18 18 18 18 18 18 19 18 17 17 18 18 18 19 20 21 20 20 20 22 22 21 20 19 19 19 18 19 19 19 20 21 21 21 21 22 22
22 20 20 21 22 21 22 22 22 20 18 17 17 17 16 15 15 16 17 16 15 14 13 13 13 13 13 14 14 15 16 17 18 18 18 18 18 19 19 20 21 21 21 20 19 19 20 21 21 20 19 20 20 20 20 20 20 19 19 20 20 20 21 22 22 22 22 23 23 24 23 22 22 22 21 21 21 22 23 23 23 24 24 25 26
24 22 23 23 23 23 23 24 22 19 18 16 15 15 15 14 15 17 17 17 15 15 14 14 14 14 14 14 14 15 16 18 19 19 19 20 21 21 21 21 22 22 22 21 20 21 21 22 22 22 21 21 21 22 22 22 22 22 22 22 23 23 23 23 23 24 24 24 25 25 26 26 26 26 25 25 24 25 25 25 26 27 28 27 28
24 23 25 26 25 24 24 23 21 18 17 16 15 16 16 16 17 18 18 18 17 17 16 16 16 16 16 16 15 15 16 17 18 18 19 20 22 23 23 24 23 20 20 21 21 21 21 22 22 23 23 23 23 24 25 25 25 25 25 25 25 25 24 24 24 24 25 25 26 27 27 28 29 29 28 28 27 27 27 26 27 29 30 30 30
25 23 24 26 25 24 25 24 21 20 20 19 19 19 19 19 19 19 19 19 20 20 19 19 19 19 19 19 19 18 18 18 19 19 20 21 22 23 24 25 22 20 21 23 23 22 22 22 24 25 25 25 25 26 26 27 27 27 27 27 27 27 27 26 26 26 26 26 27 27 28 29 30 30 30 30 30 30 31 30 29 30 31 31 31
28 27 29 30 26 24 27 27 24 23 23 23 23 23 22 21 20 20 20 20 20 20 20 21 21 21 21 21 21 20 20 21 22 23 23 23 23 24 25 24 22 21 23 25 25 25 24 24 25 26 27 27 28 28 29 29 29 29 29 29 28 28 28 29 28 27 27 27 28 29 29 30 31 31 30 31 32 32 33 33 32 31 31 30 31
31 31 33 36 34 30 32 31 27 25 26 26 25 24 22 21 21 21 21 21 20 20 20 21 21 22 23 23 23 23 23 23 23 24 25 25 25 26 26 25 23 23 24 25 27 28 28 28 28 28 29 29 30 31 31 31 32 31 31 31 30 29 29 29 29 28 29 29 29 30 30 30 32 32 32 32 33 34 34 34 32 32 32 32 32
34 32 33 36 36 33 32 32 30 28 28 28 26 22 20 21 23 23 22 21 21 21 21 22 23 23 24 24 24 25 25 26 26 26 25 25 25 28 30 29 27 26 26 26 28 29 29 30 31 31 31 31 32 33 34 34 34 34 33 34 33 32 31 30 30 31 31 31 31 32 32 32 33 34 34 34 35 36 36 35 34 33 34 34 33
36 34 31 31 31 30 29 28 26 24 23 24 25 23 23 26 26 24 23 23 23 23 24 24 25 26 26 26 27 28 29 30 30 30 29 27 27 31 33 32 31 31 30 29 28 28 28 29 31 33 33 34 34 34 35 35 35 35 35 36 36 35 34 33 33 34 34 34 35 35 35 35 34 35 36 36 36 36 36 36 36 36 36 36 35
37 36 31 28 27 27 27 26 24 23 22 23 25 25 26 28 27 25 25 25 25 25 25 26 26 27 28 29 29 29 30 32 33 33 33 32 33 37 38 36 34 33 33 32 31 30 29 29 30 32 34 35 35 35 36 36 36 36 37 37 38 38 37 36 37 37 38 38 37 37 38 38 37 37 38 38 37 38 38 38 38 38 37 37 36
25 27 27 28 29 29 29 29 29 27 26 27 29 30 29 27 26 26 27 27 28 28 28 28 28 29 29 30 30 30 31 32 33 34 35 35 35 38 40 39 37 36 35 34 33 32 31 31 32 33 35 36 36 36 37 37 37 37 37 38 39 39 39 39 39 40 40 39 39 39 40 40 40 39 40 40 41 41 41 41 40 40 39 38 37
17 16 18 21 23 24 25 26 28 30 30 29 31 32 30 28 28 29 29 30 30 30 28 28 28 28 29 29 29 29 29 30 31 33 34 35 35 37 38 38 38 38 36 35 34 33 33 34 35 36 36 36 36 37 37 37 37 37 38 39 39 40 40 40 41 42 42 42 42 42 42 42 42 42 43 43 44 44 43 42 41 41 41 40 39
17 16 16 16 17 18 17 17 19 24 28 30 33 35 34 32 31 31 30 31 31 31 30 28 26 26 26 26 26 27 27 27 27 27 28 30 32 35 35 35 36 37 37 35 34 34 35 36 37 38 39 38 38 37 37 36 35 36 37 38 40 40 40 41 43 44 45 45 45 45 45 45 44 43 44 44 44 44 44 44 43 43 42 42 41
12 13 14 14 15 17 18 17 17 18 20 21 23 27 31 33 33 32 32 31 31 31 30 29 27 26 25 25 26 26 26 26 26 25 22 20 21 22 23 26 29 32 34 34 35 36 36 37 38 39 41 41 41 39 37 34 34 36 37 39 40 42 42 43 44 45 44 45 45 46 46 46 44 43 44 44 45 45 45 45 45 44 44 43 43
10 11 11 11 12 14 16 17 18 19 19 18 17 18 19 21 23 24 25 25 26 26 27 27 27 27 27 25 22 22 24 23 22 21 19 15 13 13 15 20 24 26 28 30 32 35 36 37 38 39 41 42 42 41 39 36 35 38 39 40 41 42 42 43 45 45 45 46 46 46 45 45 44 44 44 44 43 44 44 45 45 44 44 44 44
10 10 11 10 11 11 12 14 14 15 17 18 18 17 16 15 15 14 14 16 17 19 20 22 24 25 24 23 19 18 22 22 20 22 25 23 19 16 17 20 22 23 24 24 25 27 29 31 32 34 36 38 40 41 42 42 42 43 44 44 44 44 46 49 50 50 49 47 46 45 44 44 45 45 45 45 45 45 45 46 46 45 45 46 46
9 9 9 9 9 9 10 10 10 11 12 12 14 15 15 15 15 14 14 15 16 17 18 20 22 23 22 22 19 18 22 25 26 29 30 28 25 21 19 21 21 22 23 23 23 24 25 25 27 28 30 32 34 36 39 41 42 43 45 46 47 48 50 51 50 48 46 45 45 45 45 45 46 47 48 49 49 49 48 47 47 47 48 48 48
10 9 10 10 10 10 9 9 9 10 11 12 13 14 15 15 16 17 17 18 19 20 20 20 22 24 24 24 23 21 23 26 27 27 26 25 23 21 21 22 22 22 23 24 25 26 26 27 29 30 31 32 33 34 35 36 38 39 40 42 44 44 44 44 44 44 44 44 45 45 45 46 47 48 48 49 49 48 47 47 46 46 47 48 48
11 11 11 11 12 12 12 12 13 13 14 14 15 16 17 18 18 18 19 20 21 22 23 23 23 24 25 25 26 25 26 26 26 26 25 24 23 23 23 24 25 25 26 26 27 28 29 31 32 34 35 35 36 37 37 38 38 37 38 38 38 38 38 39 41 41 41 41 41 41 41 41 42 43 43 43 43 43 43 43 43 43 43 44 44
12 13 14 14 14 15 15 16 16 17 17 18 18 19 20 20 20 21 21 22 23 24 25 25 25 26 27 27 28 28 29 29 28 28 27 26 26 26 26 27 28 29 29 30 31 31 32 34 35 36 37 38 39 39 40 40 39 39 39 39 38 38 39 39 40 40 40 40 40 40 40 39 39 40 40 40 40 41 41 41 41 42 42 42 42
16 16 17 17 17 18 18 19 19 19 20 21 21 22 23 23 24 24 25 25 26 27 27 28 28 29 29 29 30 30 31 31 31 30 30 30 29 29 29 29 30 31 31 32 34 34 35 35 36 37 38 39 40 41 41 41 41 42 42 42 42 42 42 42 42 42 42 42 42 41 41 41 40 40 41 41 42 42 42 42 42 43 43 43 44
20 20 20 20 21 21 21 22 22 23 23 24 24 24 25 26 26 27 28 28 29 29 30 30 31 31 31 32 32 32 33 33 33 33 32 32 32 32 32 32 33 33 33 34 35 36 36 37 37 39 40 40 41 42 42 43 43 43 43 44 44 44 44 44 44 44 43 43 43 42 42 42 42 42 42 42 42 42 42 43 43 43 44 44 45
23 23 23 23 23 24 24 25 25 26 26 27 27 27 28 28 29 29 30 30 31 32 32 32 33 33 33 34 34 34 34 34 34 34 34 34 34 34 34 35 35 35 36 36 37 37 38 39 40 40 41 42 43 44 44 45 45 45 45 45 45 45 45 45 45 45 44 44 44 44 43 43 43 43 43 43 43 44 44 44 44 44 44 45 45
27 27 26 26 26 27 27 28 28 29 29 29 30 30 30 30 31 31 32 32 33 33 34 34 34 34 35 35 35 35 35 35 34 34 34 35 35 35 36 37 37 38 38 38 39 39 40 41 42 43 43 44 44 45 46 47 47 48 48 47 47 47 47 47 47 47 47 46 46 46 46 46 46 45 45 45 46 46 46 46 46 46 46 46 46
29 29 29 29 30 30 31 31 31 32 32 32 32 33 33 33 33 33 33 34 34 35 35 35 35 36 36 35 35 35 35 35 35 35 35 36 36 37 38 38 39 39 40 40 40 41 41 42 43 44 44 45 45 45 46 47 48 48 49 49 50 50 50 50 50 49 48 48 48 48 48 48 48 48 48 48 48 48 48 48 48 48 48 48 48
32 32 32 32 33 33 34 34 34 34 34 34 35 35 35 35 35 35 35 35 36 36 36 36 36 36 36 36 36 36 36 36 36 36 37 37 38 38 39 39 40 40 40 40 41 41 42 43 43 44 45 45 45 46 46 47 48 49 49 50 50 50 50 51 51 50 50 49 49 49 49 50 50 50 50 50 50 50 50 49 49 50 50 50 50
32 33 33 34 35 35 36 36 37 37 36 36 36 36 36 36 36 36 37 37 37 37 37 37 37 37 37 37 37 37 37 37 37 38 38 39 39 39 40 40 41 41 42 42 42 42 43 43 44 45 45 46 46 47 47 48 48 49 49 50 50 50 50 50 50 50 50 51 51 51 51 52 52 52 52 52 52 52 52 52 52 52 52 53 53
31 32 33 34 34 35 35 36 36 36 37 37 36 35 35 36 36 36 35 36 36 36 36 36 36 36 37 37 37 37 37 38 38 38 39 39 39 40 40 41 42 42 43 44 44 44 45 45 45 45 46 46 47 47 47 48 48 48 49 49 49 50 50 50 50 50 51 51 52 52 53 53 54 54 54 54 54 54 54 55 55 55 55 56 56
29 29 30 31 32 32 32 32 32 32 32 33 32 32 32 33 33 34 33 33 33 33 33 34 34 34 35 35 36 36 37 37 38 38 39 39 40 41 41 42 42 43 43 44 45 45 46 46 46 47 47 47 48 48 49 49 49 49 49 49 49 50 51 51 52 52 53 54 54 55 55 56 56 56 57 57 57 57 57 58 58 59 59 59 60
27 27 27 27 27 27 27 27 28 28 28 28 28 28 28 28 29 29 30 30 30 31 31 32 33 33 34 34 35 36 36 37 37 38 38 39 40 41 42 42 43 43 44 44 45 45 45 46 47 47 48 49 49 50 50 50 51 51 51 51 52 52 53 54 55 55 56 57 57 58 58 59 59 60 60 60 61 61 62 62 62 63 63 63 63
23 24 24 24 23 23 24 24 24 24 24 24 25 25 25 25 25 26 27 27 28 29 30 31 32 33 34 34 35 36 36 37 37 38 38 39 40 40 41 42 43 43 43 44 44 44 45 46 47 47 48 49 49 50 51 51 52 53 53 53 54 55 56 57 58 59 60 61 62 62 63 63 64 64 64 65 65 65 65 66 66 66 66 66 66
20 21 22 22 22 22 22 22 23 23 23 23 24 24 24 24 25 25 26 27 28 28 29 30 30 31 32 33 33 34 35 35 36 37 38 38 39 40 41 41 42 42 43 43 44 45 46 47 48 49 50 51 51 52 53 54 55 55 56 56 57 58 59 60 61 62 63 64 65 66 66 67 67 68 68 68 68 68 68 68 68 68 68 68 68
19 19 20 21 21 22 22 22 22 22 23 23 23 24 24 25 25 26 27 27 28 28 29 29 30 30 30 31 31 32 34 34 35 36 36 37 38 38 39 40 41 42 43 44 46 47 48 50 51 52 53 54 55 55 56 57 58 59 59 60 60 61 61 62 63 64 65 66 67 67 68 68 69 69 70 70 70 70 70 70 70 70 70 70 69
17 18 18 19 20 20 21 21 21 22 22 22 23 23 24 24 25 25 25 26 27 27 28 29 30 30 31 32 33 34 35 36 36 37 37 38 39 39 40 41 42 43 45 46 47 49 50 51 52 54 55 56 56 57 58 59 60 61 61 62 63 63 64 65 65 66 67 67 68 68 69 69 70 70 70 71 71 71 71 71 71 71 71 70 70
16 17 17 17 18 18 19 19 20 20 20 20 21 22 22 23 23 24 24 25 25 26 27 28 29 30 31 32 33 35 36 37 38 39 40 41 42 43 44 44 45 46 47 48 49 50 50 52 53 54 55 56 57 58 59 60 61 62 63 64 65 65 66 67 68 68 69 70 70 70 71 71 71 71 71 70 70 70 70 70 70 70 70 70 69
15 15 15 16 15 16 16 17 18 18 18 19 20 21 21 22 23 23 23 24 25 26 27 28 29 30 31 32 34 36 37 38 39 41 42 43 44 45 46 47 48 49 50 51 51 52 53 54 55 56 58 59 60 61 62 63 64 65 66 66 67 67 68 68 69 69 70 70 71 71 72 72 72 72 71 71 70 70 69 69 69 69 68 68 67
13 14 14 14 14 14 15 16 17 17 18 19 19 20 21 21 22 22 23 24 25 27 28 29 31 32 33 35 37 38 40 41 42 43 44 44 45 46 47 48 49 49 51 52 53 54 55 57 58 60 61 63 64 65 66 67 68 68 69 69 69 70 70 70 71 71 71 71 71 71 71 71 71 71 71 70 70 70 69 69 69 69 68 68 67
12 13 13 13 13 14 15 15 16 17 18 19 20 21 21 22 23 24 26 27 28 30 31 32 33 35 36 38 40 41 42 43 43 44 44 45 46 47 48 49 50 51 52 53 54 56 57 58 60 61 63 65 66 67 68 68 68 69 70 70 70 71 71 71 71 71 71 71 71 70 70 70 70 70 70 69 69 68 68 68 68 67 67 67 66
12 12 12 12 13 15 16 17 19 20 21 22 23 24 24 25 26 27 29 30 31 32 33 35 36 38 39 40 41 41 42 43 43 44 45 46 47 48 49 51 51 52 54 55 56 57 58 60 61 63 64 65 66 66 66 67 67 68 68 69 69 70 70 70 70 70 70 69 69 69 69 69 69 69 69 69 69 68 68 68 67 67 67 66 66
11 11 12 13 15 17 19 20 22 23 24 25 25 26 27 27 28 30 31 32 34 35 36 38 38 39 39 40 40 41 43 44 45 46 47 48 49 50 51 52 53 54 55 57 58 59 60 61 62 63 63 63 64 64 65 66 66 66 66 66 65 65 65 64 64 63 63 63 64 64 64 65 65 66 66 66 66 67 67 67 66 66 66 65 65
13 14 15 17 19 20 22 23 24 25 25 26 26 27 28 29 30 32 33 35 36 37 38 38 38 38 39 40 41 42 43 44 46 47 48 49 50 52 53 54 55 56 57 58 60 61 61 61 61 61 61 61 62 63 63 62 61 60 60 59 58 57 57 58 58 59 59 60 60 61 61 62 63 63 63 64 64 64 64 65 65 64 64 64 63
16 18 19 21 23 24 25 25 26 27 27 27 27 28 29 31 32 34 35 36 36 37 37 37 38 39 40 41 42 42 44 45 47 49 50 51 52 53 54 55 56 57 59 60 60 60 60 59 59 60 60 59 59 58 57 56 55 55 55 55 55 56 57 58 58 59 59 59 60 61 61 62 63 63 63 63 63 63 63 63 63 63 62 62 62
21 22 24 25 25 26 26 26 27 28 28 29 29 30 32 33 34 34 35 35 36 36 37 38 39 40 40 41 42 44 45 47 48 49 50 52 53 54 55 56 57 58 58 58 58 58 58 58 58 57 56 55 54 53 53 53 54 54 55 56 57 57 57 57 56 57 57 58 59 60 62 63 63 64 64 64 64 64 63 62 61 60 59 59 58
24 25 26 27 27 27 27 27 27 29 30 31 32 33 34 34 34 34 35 36 36 37 38 38 39 40 41 43 44 46 47 48 49 50 51 52 53 54 55 56 57 57 57 56 56 56 56 55 53 52 51 51 52 52 53 53 54 55 55 55 55 53 52 52 53 54 56 58 61 62 63 64 64 64 64 63 63 62 60 58 57 55 54 53 53
27 27 28 28 28 28 28 28 29 30 31 33 34 34 34 34 34 35 36 36 37 37 37 38 39 41 42 44 46 47 48 49 50 51 52 53 53 54 55 55 56 56 56 56 55 54 52 50 49 49 50 51 51 52 53 53 53 53 52 50 49 48 49 50 52 55 57 60 62 63 62 61 59 57 55 53 52 51 50 49 48 47 47 46 46
27 28 28 28 29 30 30 31 31 32 33 34 34 34 34 35 35 36 36 37 37 37 38 38 40 41 43 44 46 47 48 49 49 50 50 51 52 54 55 56 56 56 56 54 53 50 49 48 48 48 49 50 51 51 52 51 49 47 46 45 46 47 49 51 53 56 58 59 58 56 53 50 47 45 43 41 40 39 39 38 39 39 39 39 39
28 28 28 28 29 30 31 32 33 34 34 34 33 34 35 36 36 36 36 37 37 37 38 40 41 43 44 46 47 48 48 49 49 49 50 51 53 54 55 55 55 54 52 50 48 47 46 46 47 48 49 50 50 50 48 45 43 42 42 43 45 46 48 51 53 55 54 52 49 46 43 40 38 37 36 35 34 34 33 33 32 32 31 31 31
Wind_Direction
232 228 223 220 218 219 220 219 216 215 215 216 217 218 221 224 228 229 231 232 232 232 231 228 226 225 225 226 225 225 228 229 230 233 235 235 235 238 238 240 243 245 247 251 254 258 265 271 277 280 280 280 280 283 286 286 285 288 291 289 285 285 287 289 291 292 291 291 293 294 294 296 299 300 301 303 305 306 307 309 310 309 308 312 316
233 228 223 219 217 218 220 220 218 217 218 219 220 221 223 225 228 231 233 236 238 241 242 237 235 235 236 236 234 232 233 233 232 232 234 233 235 239 242 243 243 244 245 247 251 262 272 275 272 270 269 268 269 273 277 278 279 280 281 281 279 279 281 283 286 289 289 287 286 287 287 289 293 294 296 297 299 301 303 305 305 303 304 307 310
226 227 227 226 220 217 218 220 221 222 223 223 224 227 230 232 234 237 238 239 240 242 245 246 244 242 240 240 241 239 237 236 236 236 235 235 237 241 243 242 241 241 242 242 243 249 255 257 258 262 266 270 272 274 275 276 277 277 278 280 282 282 279 278 281 284 286 284 281 283 286 288 288 287 286 289 292 295 299 301 301 301 302 305 307
224 228 236 240 235 224 218 217 220 225 228 230 230 232 236 239 241 244 246 247 248 248 249 253 255 252 247 243 243 243 241 238 238 239 239 240 242 244 245 245 244 244 244 243 239 238 242 247 251 254 259 264 267 269 270 270 271 272 274 276 280 283 282 280 279 281 283 285 285 285 285 286 285 284 285 288 290 293 297 300 301 300 299 300 302
221 224 231 236 238 234 225 219 217 220 227 233 236 237 239 244 247 248 249 249 252 255 257 260 262 261 259 256 252 250 250 246 243 242 243 242 243 243 244 247 248 247 247 246 243 241 242 246 249 251 253 257 260 263 266 267 268 270 273 274 276 278 280 282 283 283 284 286 288 288 287 286 285 285 287 289 290 291 295 298 299 298 298 299 301
230 229 225 218 221 225 226 225 221 217 220 227 236 240 242 246 250 252 253 253 254 255 255 257 258 260 261 262 260 257 255 254 253 252 252 251 249 246 245 247 248 249 249 248 248 248 249 250 253 254 256 259 261 264 268 271 272 272 273 275 276 276 278 281 283 284 285 286 287 288 289 290 290 289 290 291 290 291 294 298 299 297 297 300 301
236 236 229 217 211 214 222 226 223 221 221 222 230 238 239 243 248 251 253 254 255 253 252 254 257 259 261 262 263 262 260 260 260 260 261 261 260 258 256 254 253 255 257 257 255 255 255 257 258 259 259 261 263 265 268 270 271 271 270 270 271 272 274 276 279 282 284 285 285 286 288 291 292 292 294 294 294 294 296 298 299 298 298 299 299
233 237 235 226 215 211 215 216 217 226 234 230 229 233 234 238 244 248 250 251 251 251 250 253 256 258 260 261 262 262 263 264 264 264 264 264 263 262 260 259 259 260 265 267 267 264 262 262 263 263 263 263 263 264 265 266 267 267 267 268 268 270 271 273 275 277 279 281 281 282 284 287 289 290 293 295 295 296 296 296 296 297 298 299 299
231 232 230 223 216 212 211 211 219 235 242 237 234 235 236 239 243 248 252 253 253 253 252 253 254 257 260 260 260 259 258 259 262 265 266 265 265 264 262 261 262 260 261 264 266 266 266 266 265 266 266 266 266 266 265 266 266 267 268 268 269 270 271 272 273 274 276 278 279 280 282 283 285 287 290 291 292 294 295 295 295 294 295 297 297
233 231 227 223 223 223 219 221 230 239 241 239 238 238 238 242 247 252 256 256 258 259 259 260 259 259 260 261 262 262 260 259 259 261 264 266 268 269 267 267 265 260 257 259 261 263 264 265 265 266 267 268 269 268 267 268 268 270 271 271 271 272 272 273 273 275 277 278 278 279 280 281 283 285 287 288 290 292 294 294 293 291 291 293 294
234 232 231 230 233 233 228 229 235 239 239 239 239 240 243 247 249 252 255 258 260 262 264 265 265 265 264 263 263 264 265 265 264 264 267 270 273 273 270 269 267 263 260 260 261 262 263 264 265 266 268 268 268 268 268 269 270 271 272 273 275 276 276 276 276 276 278 278 278 278 279 280 282 284 285 285 286 289 292 292 291 289 289 290 291
234 234 235 234 234 233 229 231 236 238 238 239 240 242 246 249 249 250 252 255 258 261 263 266 268 268 267 266 264 264 266 268 268 268 269 271 274 276 271 264 261 262 261 259 260 263 266 268 268 267 268 268 268 269 269 271 272 274 274 275 276 276 277 278 277 276 277 277 278 279 280 281 282 283 283 283 283 285 289 290 290 289 289 288 288
233 235 234 231 230 227 227 232 236 234 235 241 243 239 237 242 246 249 253 256 257 260 263 265 267 268 269 268 267 266 266 267 269 269 268 265 263 266 267 263 258 258 260 259 260 264 267 270 271 269 267 266 267 268 270 271 272 274 275 275 276 276 277 277 276 275 275 275 276 278 279 281 281 282 282 282 282 284 286 289 290 290 289 288 288
232 233 232 231 231 230 233 239 240 239 242 250 252 247 244 247 251 253 256 258 259 261 263 264 266 269 270 270 269 269 268 269 271 271 270 266 258 256 260 263 263 261 260 259 259 261 262 264 268 269 268 267 267 268 269 271 272 273 274 275 276 277 278 277 276 275 275 276 276 277 277 278 279 280 280 281 282 283 284 286 288 289 289 289 289
235 234 232 235 239 240 243 244 244 243 244 249 253 254 254 254 256 257 257 258 260 263 265 268 270 271 272 273 273 274 273 273 274 273 273 272 267 263 261 262 262 262 261 260 259 260 260 260 263 266 267 267 267 267 269 272 273 274 274 275 277 278 278 278 278 278 278 279 279 279 278 277 278 278 279 279 280 281 282 283 284 285 287 288 288
250 243 237 237 241 246 249 248 247 246 244 244 247 251 252 251 252 255 255 256 259 263 266 270 271 272 273 273 274 274 275 276 276 275 274 271 267 266 265 262 261 260 260 260 261 261 261 261 263 265 266 267 267 267 268 270 273 275 276 277 278 278 278 279 279 280 280 281 281 280 279 279 279 279 279 279 280 280 281 282 282 282 282 283 284
256 253 251 248 247 252 256 258 256 253 249 247 247 249 250 250 251 253 254 255 257 260 263 267 271 271 271 271 273 274 276 277 277 279 280 273 264 263 265 265 264 263 262 262 262 262 263 264 265 265 266 267 269 271 270 269 271 274 277 277 278 278 279 280 280 281 282 282 283 282 280 279 279 279 279 280 281 281 281 281 282 282 281 281 281
259 257 256 255 256 259 262 262 261 259 258 259 259 256 254 253 253 255 256 257 258 258 260 264 267 269 269 270 273 275 276 278 279 281 287 285 272 269 275 277 274 271 268 266 264 263 265 266 266 266 266 267 269 272 273 270 269 271 274 276 277 278 279 280 280 281 282 283 284 284 282 280 278 279 280 280 280 281 280 280 280 280 281 281 280
252 253 252 252 252 254 255 255 256 259 265 272 278 276 269 262 259 259 259 259 260 260 262 264 264 264 264 263 266 273 277 279 279 277 281 290 294 293 292 289 285 280 276 272 269 266 266 267 268 268 268 269 269 271 272 271 269 268 270 273 275 275 275 276 278 279 280 282 283 283 283 282 280 280 281 281 280 281 282 281 280 279 279 280 281
245 247 247 246 243 243 248 250 253 259 264 270 274 278 279 278 276 273 270 268 266 265 264 264 262 261 259 256 257 266 270 270 274 277 281 289 297 294 282 276 276 276 276 276 274 270 267 268 270 272 273 273 271 271 271 271 270 269 269 270 270 270 270 273 276 278 279 280 280 280 282 282 280 278 279 280 281 283 283 282 280 278 278 279 280
241 244 246 247 247 247 250 251 253 256 260 264 267 268 271 273 272 270 267 265 265 264 262 262 264 267 268 269 270 268 263 266 276 283 286 290 294 290 279 271 269 269 270 273 274 273 272 272 273 275 276 275 273 272 271 271 271 271 271 271 270 269 270 272 275 277 277 277 277 278 278 279 278 276 276 278 280 281 281 280 280 278 277 278 279
237 238 240 244 247 248 250 251 251 251 249 249 251 252 254 256 257 257 257 257 258 260 260 262 266 272 276 279 279 275 269 271 277 282 284 286 287 283 276 270 268 267 268 269 270 271 272 273 274 275 275 274 274 274 274 273 273 273 274 273 272 272 273 274 275 275 275 275 275 276 275 275 275 276 276 278 279 280 280 280 279 278 277 277 278
246 246 246 246 245 244 245 245 244 244 244 244 244 245 246 248 250 252 253 255 256 257 258 260 262 266 271 273 274 274 273 273 274 275 276 276 274 272 269 268 267 266 265 267 268 269 270 271 272 273 274 274 275 275 275 275 275 275 276 276 276 276 276 276 276 276 277 277 277 277 277 277 277 278 279 280 280 281 280 279 278 278 277 277 277
259 260 259 257 254 251 249 246 244 242 243 243 244 245 246 247 248 250 251 253 255 257 258 260 261 262 265 267 269 270 271 271 271 271 271 270 269 268 267 266 266 266 265 266 267 267 268 269 270 272 273 274 275 276 277 277 278 278 278 279 279 278 278 278 278 278 279 279 280 281 281 281 282 281 281 281 281 281 280 280 280 280 279 279 279
261 264 265 264 263 261 258 255 252 250 248 248 248 249 249 249 250 251 252 253 255 256 258 260 262 263 264 266 267 268 269 270 270 269 269 268 268 267 266 266 266 267 267 268 268 269 269 269 271 273 274 275 275 275 276 277 278 279 280 280 280 280 280 280 280 280 281 281 282 283 283 284 284 283 283 282 281 281 281 281 281 281 281 281 280
260 261 262 262 263 263 262 261 260 259 258 256 254 253 253 254 255 255 255 256 257 257 258 260 262 264 265 266 266 267 267 268 269 269 270 270 269 269 269 268 268 268 268 269 270 271 271 271 272 274 275 276 277 277 278 278 279 281 281 282 283 283 283 284 284 284 284 283 283 283 283 284 284 284 283 283 283 282 282 281 281 281 281 281 281
260 259 259 260 260 261 261 261 260 261 261 261 260 259 257 257 257 258 259 260 261 260 260 262 263 265 265 266 266 267 267 268 268 269 270 271 272 273 273 273 273 273 272 272 273 274 274 274 274 274 275 276 277 278 280 281 282 283 283 283 284 284 284 284 284 284 284 284 283 283 283 283 283 282 282 282 282 282 282 281 281 281 280 280 280
259 259 259 259 258 258 258 258 258 259 259 260 261 261 260 260 260 260 261 264 265 266 265 265 266 267 267 268 269 269 269 270 271 272 273 274 275 276 277 278 278 278 278 278 278 278 277 277 277 277 277 277 277 278 279 280 281 282 282 283 283 283 283 283 283 283 283 283 283 283 283 283 282 282 282 282 281 282 282 282 282 282 281 281 281
257 257 258 259 259 258 258 257 257 257 257 257 258 259 261 262 262 262 263 264 266 268 268 269 269 270 271 272 273 273 274 274 275 276 277 278 279 280 281 282 282 281 281 281 281 281 280 280 279 279 278 278 278 279 279 279 279 279 279 279 280 281 282 283 283 283 283 283 283 283 283 283 283 283 283 283 283 283 283 284 284 283 283 283 282
257 257 257 257 258 259 259 259 259 258 257 257 257 257 259 261 262 264 264 265 266 267 269 270 271 273 274 275 275 276 277 277 278 279 280 280 281 282 282 282 281 281 281 281 281 281 281 281 280 280 280 279 279 279 278 279 279 278 278 278 278 279 279 280 280 281 281 281 281 282 282 282 283 283 283 284 284 285 285 285 285 285 285 285 284
262 262 261 260 260 260 261 262 262 262 262 261 261 260 260 261 262 263 265 266 267 268 269 271 272 273 274 276 277 278 278 279 279 280 280 280 281 281 281 281 281 281 281 281 281 281 281 281 281 281 281 280 280 279 279 279 279 279 279 279 279 279 278 278 278 279 279 279 280 281 281 282 282 283 283 284 284 285 285 286 285 285 285 285 285
268 268 268 268 268 267 267 266 266 265 265 266 266 266 265 264 265 266 267 268 269 270 271 272 273 273 274 275 276 277 278 279 279 280 280 280 280 280 281 281 281 281 282 282 282 281 281 281 281 281 281 281 280 280 280 280 280 279 279 279 279 279 279 279 279 280 280 280 281 281 282 282 282 283 283 284 284 284 285 285 285 285 285 285 285
272 272 272 272 273 273 274 273 273 271 270 270 271 270 269 267 267 269 270 271 272 272 273 273 274 274 275 276 276 277 277 278 279 279 280 280 281 281 281 281 281 281 282 282 282 282 282 282 281 281 281 280 280 280 280 280 280 280 280 280 280 280 280 281 281 281 281 282 282 282 282 282 283 283 283 283 283 283 284 284 284 284 284 284 284
276 276 276 276 276 276 277 277 277 276 276 276 275 275 274 273 271 271 271 272 273 274 275 275 276 276 277 277 278 278 278 279 279 279 279 279 279 279 280 280 280 281 281 281 282 282 282 282 282 281 281 281 281 281 281 281 281 280 280 281 281 281 281 281 282 282 282 282 282 282 282 283 283 283 283 283 283 283 283 283 283 283 282 282 282
280 280 281 281 281 281 280 280 279 279 278 278 277 277 277 276 275 273 272 271 272 273 273 274 275 276 277 278 278 279 279 279 279 279 279 279 279 280 280 280 281 281 281 281 281 282 282 282 282 282 282 282 282 282 282 281 281 281 281 281 281 281 281 281 282 282 282 283 283 283 283 284 284 284 284 284 284 284 284 283 283 283 282 282 282
281 281 282 282 282 282 282 281 281 280 279 278 278 278 277 276 275 275 275 275 275 275 275 275 276 276 276 276 276 277 277 277 277 277 277 278 279 279 281 281 282 282 282 283 283 283 283 283 284 284 284 283 283 283 283 283 282 282 281 281 281 280 280 280 281 281 282 282 283 283 283 284 284 284 284 284 284 284 284 284 283 283 283 283 282
280 281 281 280 281 281 281 280 280 279 279 279 279 278 278 278 278 279 280 280 281 281 281 281 282 282 282 281 281 281 280 280 280 280 280 279 279 279 279 280 281 281 282 282 283 284 285 285 286 286 286 285 285 285 285 285 284 284 283 283 282 282 282 282 281 282 282 282 282 283 283 283 283 283 283 283 283 283 283 283 283 282 282 282 282
279 279 279 279 280 280 280 279 279 279 279 278 277 277 277 277 278 279 280 280 281 282 283 284 285 285 285 285 286 286 286 287 287 287 287 286 286 285 284 283 282 282 282 283 283 284 285 285 286 286 286 286 286 285 285 285 285 284 284 284 284 284 283 283 283 283 283 283 283 283 283 283 283 283 283 282 282 282 282 282 282 281 281 281 281
278 278 278 279 279 280 280 280 279 279 278 277 277 277 277 276 277 277 278 280 282 283 284 285 285 286 286 286 287 288 288 289 289 289 289 289 289 289 288 287 287 287 286 286 286 286 286 286 286 286 286 286 286 286 286 285 285 285 285 285 285 285 284 284 284 284 284 284 283 283 283 283 283 283 283 283 282 282 282 281 281 281 281 281 280
276 278 279 279 279 279 280 281 281 281 281 281 281 282 282 282 282 282 283 285 286 286 286 286 287 287 288 289 289 289 290 289 289 289 289 289 289 289 288 288 288 288 289 289 289 289 289 289 289 289 289 289 288 288 287 287 287 287 287 287 287 287 287 286 286 286 286 286 285 285 285 285 285 284 284 284 284 284 283 282 282 282 281 281 280
272 274 276 278 279 281 281 283 285 286 288 289 289 288 289 289 290 290 290 290 289 288 288 287 287 288 289 289 289 289 290 290 290 290 290 290 289 289 289 289 289 289 289 289 289 289 289 289 289 289 289 289 289 289 288 288 289 289 289 289 289 289 289 289 289 289 289 289 289 288 288 287 287 286 286 285 285 284 284 284 283 283 282 282 282
269 274 277 280 284 287 289 290 292 293 293 292 292 291 291 292 293 292 291 290 289 288 288 288 288 289 289 290 291 291 291 292 291 291 291 291 291 291 290 290 290 289 289 289 289 288 288 288 288 288 288 288 288 288 289 289 290 290 290 290 290 290 290 290 290 290 290 289 289 289 289 288 288 287 287 286 285 285 284 284 283 283 283 282 282
273 278 284 288 292 294 295 295 295 294 293 292 291 291 292 292 293 292 291 290 290 290 290 290 291 291 292 293 294 293 293 292 292 292 292 292 291 291 291 291 291 290 290 290 290 290 289 289 289 288 288 289 289 290 291 291 291 290 290 290 290 290 290 289 289 289 289 289 289 288 288 288 287 287 287 286 286 285 284 284 283 283 282 282 282
275 279 284 288 290 291 292 293 293 293 293 293 293 293 294 294 293 292 292 292 292 292 292 292 293 294 294 294 294 293 293 293 293 293 293 293 293 293 293 293 293 293 292 292 292 292 291 291 291 292 292 292 292 292 292 292 291 291 291 291 291 291 291 291 291 291 290 290 290 289 289 288 288 287 287 286 286 285 285 284 284 283 283 282 282
274 279 283 286 289 291 293 293 294 294 294 294 295 295 294 294 293 293 293 294 294 294 294 294 295 295 294 294 294 294 295 295 295 295 295 295 295 295 295 295 295 294 294 294 294 294 294 294 295 295 295 294 293 293 293 293 293 293 293 293 294 294 294 294 294 293 293 292 292 291 290 290 289 288 288 287 286 285 285 284 284 283 283 282 282
276 281 285 289 292 293 294 295 296 295 295 295 294 293 293 292 292 293 294 294 294 294 295 295 295 295 295 295 296 296 297 297 297 297 297 297 297 297 297 297 296 296 296 296 296 297 297 297 296 295 294 294 293 293 293 294 294 294 295 295 295 295 295 295 295 295 294 294 293 292 292 291 290 289 288 287 286 285 284 284 283 282 282 281 281
278 283 287 290 291 292 293 293 294 294 294 294 294 293 293 294 294 295 295 295 295 295 295 295 295 295 296 296 297 297 298 298 299 299 299 300 300 299 299 299 299 298 298 299 299 299 298 297 296 295 294 294 294 294 294 295 295 295 296 296 297 297 297 297 297 297 297 297 296 296 295 294 293 291 289 287 286 285 284 283 282 282 281 281 280
280 284 287 288 290 291 292 292 292 292 293 293 293 294 295 296 296 296 296 296 297 297 297 297 297 298 298 298 299 299 300 301 301 302 302 302 302 302 301 301 301 300 300 300 300 299 298 297 296 295 295 295 295 295 296 296 297 297 298 298 298 299 299 299 300 300 301 301 301 300 299 297 295 292 289 287 285 284 283 282 282 281 281 280 279
281 284 286 288 289 291 291 292 291 291 292 293 295 296 296 296 296 296 297 297 298 298 298 299 300 300 301 302 302 303 304 304 305 305 305 304 304 303 303 302 302 301 301 301 300 299 298 296 296 296 296 297 297 298 298 299 299 299 300 300 300 301 302 302 303 304 305 305 304 303 301 299 296 294 292 290 288 287 285 283 282 281 280 279 279
280 283 285 288 289 289 290 290 290 291 293 295 296 296 296 297 297 298 298 298 298 298 299 300 301 302 303 304 305 306 307 307 307 306 306 305 304 304 303 303 303 302 302 302 301 299 298 297 297 298 299 299 299 300 300 301 300 300 300 301 302 303 304 305 307 308 308 308 306 305 303 302 301 299 298 296 294 292 289 287 284 283 282 281 281
281 283 285 287 287 287 288 290 291 293 294 295 295 296 297 298 298 298 298 299 299 299 300 301 302 303 304 305 306 307 307 308 307 307 307 306 305 305 304 304 304 304 303 302 301 300 300 299 299 300 299 300 300 301 301 301 300 300 301 303 304 306 308 310 311 312 312 311 310 308 307 307 306 305 303 301 299 298 296 294 292 290 289 288 287
Height
5919 5920 5920 5921 5921 5922 5922 5923 5924 5925 5926 5926 5927 5927 5928 5929 5929 5930 5931 5931 5932 5933 5933 5933 5934 5934 5934 5935 5935 5936 5936 5937 5937 5938 5938 5938 5938 5938 5938 5938 5938 5938 5938 5937 5937 5938 5938 5939 5938 5938 5937 5936 5936 5935 5935 5935 5935 5935 5934 5934 5933 5933 5932 5932 5931 5931 5931 5930 5929 5929 5928 5927 5927 5926 5925 5924 5923 5922 5921 5921 5921 5921 5920 5919 5918
5917 5918 5919 5919 5920 5920 5920 5921 5922 5923 5924 5925 5926 5926 5927 5928 5928 5929 5930 5931 5931 5932 5932 5932 5933 5933 5933 5934 5934 5935 5935 5936 5936 5937 5936 5936 5936 5936 5936 5937 5937 5937 5937 5937 5938 5939 5939 5939 5938 5937 5936 5935 5934 5934 5934 5934 5934 5934 5933 5931 5931 5931 5931 5930 5929 5929 5928 5928 5927 5927 5926 5925 5925 5925 5924 5923 5922 5921 5921 5921 5920 5920 5919 5918 5917
5915 5916 5917 5917 5918 5918 5918 5919 5920 5921 5922 5923 5924 5925 5926 5927 5927 5928 5929 5929 5930 5930 5931 5931 5931 5932 5932 5932 5933 5933 5933 5934 5934 5935 5935 5934 5934 5934 5935 5935 5935 5935 5935 5935 5937 5937 5936 5935 5935 5935 5935 5934 5934 5934 5934 5933 5933 5933 5932 5931 5930 5929 5929 5928 5928 5926 5925 5925 5925 5925 5924 5923 5923 5923 5922 5921 5920 5920 5919 5919 5919 5918 5917 5917 5916
5913 5915 5916 5917 5917 5916 5916 5916 5917 5918 5920 5921 5923 5923 5925 5926 5926 5927 5928 5928 5928 5929 5929 5929 5929 5930 5931 5931 5931 5931 5931 5932 5932 5932 5932 5932 5932 5932 5933 5933 5933 5933 5933 5933 5935 5934 5933 5933 5933 5933 5933 5933 5932 5932 5932 5931 5931 5931 5930 5929 5929 5928 5927 5926 5926 5925 5924 5923 5923 5923 5922 5922 5921 5921 5920 5919 5918 5918 5918 5917 5917 5916 5916 5915 5914
5911 5912 5913 5914 5916 5916 5915 5914 5914 5915 5917 5919 5920 5922 5923 5924 5925 5926 5926 5926 5927 5927 5927 5928 5928 5928 5929 5929 5930 5930 5929 5930 5929 5929 5929 5929 5929 5930 5930 5930 5930 5930 5930 5931 5932 5932 5931 5931 5931 5931 5931 5930 5930 5929 5929 5929 5929 5929 5928 5927 5927 5926 5925 5925 5924 5923 5922 5922 5921 5921 5921 5920 5919 5918 5918 5918 5916 5916 5915 5915 5914 5914 5913 5913 5912
5909 5909 5909 5910 5912 5915 5916 5915 5912 5912 5914 5916 5918 5919 5921 5922 5923 5923 5924 5924 5925 5925 5926 5926 5926 5926 5927 5927 5928 5928 5928 5928 5928 5927 5927 5927 5927 5927 5927 5927 5928 5928 5928 5929 5929 5930 5929 5929 5929 5929 5929 5928 5927 5927 5927 5926 5926 5926 5926 5925 5924 5924 5923 5923 5922 5921 5921 5920 5919 5919 5918 5918 5917 5916 5915 5915 5915 5914 5913 5912 5912 5911 5911 5910 5909
5906 5907 5908 5908 5910 5912 5915 5915 5913 5912 5912 5913 5915 5917 5918 5919 5920 5920 5921 5922 5923 5923 5924 5924 5924 5924 5925 5925 5925 5926 5926 5926 5926 5926 5926 5926 5925 5925 5925 5925 5925 5926 5926 5927 5928 5928 5928 5927 5927 5927 5927 5926 5925 5925 5924 5923 5923 5923 5923 5922 5922 5921 5921 5920 5920 5919 5919 5918 5917 5916 5915 5915 5914 5913 5913 5913 5912 5911 5911 5910 5909 5907 5907 5907 5906
5902 5904 5906 5907 5908 5909 5910 5912 5913 5912 5912 5912 5912 5914 5915 5916 5917 5917 5919 5920 5920 5921 5921 5922 5922 5922 5922 5922 5923 5923 5923 5923 5923 5924 5924 5924 5923 5923 5923 5922 5923 5926 5926 5925 5925 5926 5926 5925 5925 5924 5924 5923 5922 5921 5921 5920 5920 5920 5920 5919 5919 5918 5918 5918 5917 5917 5916 5915 5914 5913 5912 5911 5910 5910 5910 5909 5909 5908 5907 5907 5906 5904 5902 5902 5901
5900 5902 5904 5905 5906 5906 5906 5908 5910 5911 5910 5910 5909 5910 5911 5912 5914 5915 5916 5917 5918 5918 5919 5919 5920 5919 5919 5919 5920 5920 5921 5921 5920 5921 5921 5921 5920 5920 5919 5920 5922 5924 5923 5921 5922 5922 5922 5922 5921 5920 5920 5919 5919 5918 5918 5917 5917 5916 5916 5916 5915 5915 5915 5914 5914 5913 5913 5912 5911 5910 5909 5908 5907 5906 5906 5906 5906 5905 5903 5903 5903 5901 5900 5899 5897
5898 5900 5901 5902 5903 5904 5904 5904 5905 5906 5907 5906 5906 5906 5907 5909 5911 5913 5914 5914 5915 5915 5916 5917 5918 5918 5917 5917 5917 5917 5917 5918 5918 5918 5917 5917 5917 5917 5916 5917 5919 5920 5918 5917 5918 5919 5918 5918 5917 5916 5916 5916 5915 5914 5914 5913 5913 5912 5912 5912 5912 5912 5911 5911 5910 5910 5910 5909 5908 5907 5906 5906 5904 5904 5903 5903 5902 5901 5900 5900 5899 5898 5897 5896 5894
5894 5896 5897 5897 5898 5899 5899 5899 5900 5901 5901 5902 5902 5903 5904 5907 5908 5909 5910 5911 5912 5913 5914 5914 5915 5915 5914 5914 5914 5914 5914 5915 5915 5915 5915 5914 5914 5914 5914 5915 5916 5916 5915 5914 5914 5914 5914 5914 5914 5913 5913 5912 5912 5910 5910 5910 5909 5909 5908 5908 5908 5908 5908 5908 5907 5907 5906 5905 5905 5904 5903 5903 5901 5900 5900 5899 5898 5897 5897 5896 5895 5894 5893 5893 5891
5890 5892 5892 5892 5893 5894 5894 5894 5895 5895 5896 5896 5898 5900 5902 5904 5905 5906 5906 5907 5908 5909 5911 5911 5912 5911 5911 5911 5911 5911 5911 5911 5911 5912 5912 5912 5911 5911 5911 5912 5912 5911 5911 5911 5910 5910 5911 5911 5911 5911 5910 5909 5908 5907 5906 5906 5905 5905 5905 5904 5904 5904 5905 5904 5903 5902 5901 5901 5901 5900 5899 5899 5898 5897 5896 5895 5894 5893 5892 5891 5891 5890 5889 5888 5887
5887 5889 5889 5889 5889 5891 5892 5892 5893 5894 5894 5894 5896 5898 5899 5900 5901 5902 5902 5903 5904 5906 5907 5908 5908 5908 5908 5907 5907 5907 5907 5907 5907 5907 5908 5908 5908 5907 5906 5907 5907 5907 5907 5907 5907 5907 5908 5908 5907 5906 5905 5905 5904 5903 5902 5902 5901 5901 5900 5899 5899 5900 5900 5899 5898 5897 5897 5897 5897 5895 5895 5894 5894 5893 5891 5890 5889 5888 5887 5886 5885 5885 5884 5883 5883
5884 5885 5887 5887 5886 5887 5889 5890 5893 5894 5894 5894 5895 5895 5896 5897 5898 5899 5899 5899 5900 5901 5903 5904 5905 5905 5904 5904 5903 5903 5903 5903 5902 5902 5902 5903 5904 5903 5902 5903 5903 5903 5903 5903 5902 5902 5903 5902 5901 5900 5900 5900 5899 5899 5898 5897 5897 5897 5896 5895 5895 5894 5894 5894 5893 5892 5892 5892 5891 5891 5890 5889 5889 5888 5886 5885 5884 5883 5883 5882 5881 5880 5879 5879 5878
5881 5883 5885 5885 5884 5884 5886 5887 5889 5890 5891 5892 5892 5892 5893 5895 5896 5896 5896 5896 5896 5897 5899 5900 5901 5901 5901 5900 5900 5899 5899 5898 5898 5897 5897 5898 5899 5898 5898 5899 5899 5898 5898 5897 5897 5897 5897 5896 5895 5893 5893 5893 5893 5893 5893 5893 5893 5892 5892 5892 5891 5890 5889 5888 5888 5887 5886 5885 5885 5885 5884 5884 5883 5883 5881 5880 5879 5878 5878 5877 5876 5875 5874 5874 5873
5879 5880 5881 5881 5882 5882 5883 5885 5885 5886 5887 5888 5888 5889 5890 5891 5893 5893 5893 5893 5893 5893 5895 5896 5896 5897 5897 5896 5896 5895 5894 5894 5893 5892 5892 5892 5893 5892 5892 5893 5893 5893 5892 5892 5892 5893 5892 5891 5891 5889 5888 5887 5888 5888 5888 5889 5888 5888 5887 5887 5886 5885 5884 5883 5882 5881 5880 5880 5879 5879 5879 5878 5878 5877 5876 5875 5875 5873 5872 5871 5870 5869 5869 5868 5868
5876 5876 5876 5877 5879 5880 5881 5882 5883 5883 5884 5885 5885 5886 5886 5888 5889 5890 5890 5890 5889 5890 5890 5891 5892 5892 5893 5892 5892 5891 5890 5890 5890 5889 5887 5887 5887 5886 5887 5888 5888 5888 5888 5888 5888 5888 5887 5887 5886 5885 5884 5883 5884 5884 5884 5884 5884 5883 5883 5882 5881 5880 5879 5878 5877 5877 5876 5875 5874 5874 5873 5872 5872 5872 5871 5870 5869 5868 5866 5865 5864 5863 5862 5862 5862
5873 5873 5873 5874 5876 5877 5878 5879 5880 5881 5882 5882 5882 5882 5883 5884 5885 5885 5885 5886 5886 5886 5886 5887 5888 5888 5889 5889 5888 5887 5887 5886 5886 5885 5884 5883 5882 5882 5883 5884 5884 5883 5883 5883 5883 5883 5883 5882 5882 5881 5879 5879 5880 5880 5880 5880 5879 5878 5878 5877 5876 5875 5874 5873 5872 5872 5872 5870 5869 5868 5867 5866 5866 5865 5865 5864 5863 5862 5860 5859 5858 5857 5856 5855 5855
5870 5871 5872 5873 5874 5875 5876 5877 5878 5878 5879 5879 5879 5879 5880 5881 5881 5881 5882 5882 5882 5882 5883 5883 5884 5884 5885 5885 5885 5885 5884 5883 5881 5881 5881 5880 5880 5880 5881 5881 5881 5879 5878 5878 5878 5877 5878 5877 5877 5876 5876 5875 5875 5875 5875 5875 5874 5873 5872 5871 5870 5869 5869 5868 5866 5866 5865 5864 5863 5862 5860 5860 5859 5859 5858 5857 5856 5855 5854 5853 5852 5852 5850 5849 5848
5869 5869 5870 5871 5872 5873 5873 5874 5874 5875 5875 5876 5876 5876 5877 5878 5878 5878 5879 5879 5879 5879 5880 5880 5880 5880 5881 5881 5881 5882 5882 5879 5876 5875 5876 5878 5879 5879 5879 5879 5878 5877 5875 5874 5874 5873 5873 5873 5873 5872 5871 5871 5870 5870 5870 5869 5868 5867 5866 5865 5864 5864 5863 5862 5860 5859 5858 5857 5856 5855 5854 5853 5853 5852 5851 5850 5849 5848 5847 5846 5845 5845 5844 5843 5842
5867 5868 5868 5869 5869 5870 5870 5871 5871 5871 5872 5872 5873 5873 5874 5874 5875 5876 5876 5876 5876 5876 5877 5877 5877 5877 5877 5877 5878 5879 5879 5876 5874 5873 5873 5874 5875 5876 5876 5876 5875 5874 5873 5872 5871 5870 5869 5869 5868 5868 5867 5866 5865 5864 5863 5862 5861 5860 5860 5859 5858 5857 5856 5855 5854 5853 5852 5851 5850 5849 5848 5847 5846 5845 5844 5843 5842 5841 5840 5839 5838 5837 5837 5836 5835
5865 5865 5866 5866 5867 5867 5868 5868 5868 5869 5869 5870 5870 5870 5871 5871 5872 5872 5873 5873 5873 5873 5873 5874 5874 5873 5873 5873 5873 5874 5874 5873 5872 5872 5871 5870 5871 5871 5871 5871 5870 5870 5869 5868 5867 5866 5865 5865 5864 5863 5862 5861 5860 5859 5858 5857 5856 5855 5854 5853 5852 5851 5850 5849 5848 5847 5846 5845 5844 5843 5842 5840 5839 5838 5838 5836 5835 5834 5833 5832 5831 5830 5829 5829 5828
5862 5863 5863 5864 5865 5865 5865 5866 5866 5866 5867 5867 5868 5868 5868 5868 5869 5869 5869 5869 5869 5869 5870 5870 5870 5870 5870 5870 5870 5870 5870 5870 5869 5868 5868 5867 5867 5866 5866 5866 5866 5865 5865 5864 5863 5862 5861 5860 5859 5858 5857 5856 5856 5855 5854 5852 5851 5850 5849 5847 5847 5846 5845 5844 5842 5841 5840 5839 5838 5837 5836 5835 5834 5833 5832 5831 5829 5828 5827 5826 5825 5824 5823 5822 5821
5860 5860 5861 5861 5862 5863 5863 5863 5864 5864 5864 5864 5865 5865 5865 5865 5866 5866 5866 5865 5865 5865 5866 5866 5866 5866 5866 5866 5866 5866 5865 5865 5865 5864 5864 5863 5863 5862 5862 5861 5861 5861 5860 5860 5859 5858 5857 5856 5855 5854 5853 5852 5851 5850 5849 5847 5846 5844 5843 5842 5841 5841 5840 5839 5837 5836 5835 5834 5833 5832 5831 5830 5829 5827 5826 5825 5824 5823 5822 5821 5820 5818 5817 5816 5815
5858 5859 5859 5859 5859 5860 5860 5860 5861 5861 5861 5861 5861 5862 5862 5862 5862 5862 5862 5862 5861 5861 5862 5862 5862 5862 5862 5861 5861 5861 5861 5860 5860 5860 5859 5859 5859 5858 5858 5857 5857 5856 5856 5855 5854 5853 5852 5851 5850 5849 5848 5847 5846 5845 5843 5842 5841 5839 5838 5837 5836 5835 5834 5833 5832 5831 5830 5829 5828 5827 5825 5824 5823 5822 5821 5820 5818 5818 5817 5815 5814 5813 5811 5810 5809
5856 5857 5857 5857 5857 5857 5857 5857 5857 5857 5857 5858 5858 5858 5858 5858 5858 5858 5858 5858 5857 5857 5858 5858 5857 5857 5857 5857 5857 5857 5856 5856 5856 5855 5855 5855 5854 5854 5853 5853 5852 5852 5851 5850 5849 5848 5847 5846 5845 5844 5842 5841 5840 5839 5838 5837 5835 5834 5832 5831 5830 5829 5828 5827 5826 5825 5824 5823 5821 5820 5819 5818 5817 5815 5814 5813 5812 5811 5810 5809 5808 5806 5805 5804 5803
5853 5854 5854 5855 5855 5855 5855 5855 5854 5854 5854 5854 5854 5854 5854 5854 5854 5854 5854 5854 5853 5853 5854 5853 5853 5853 5853 5853 5853 5853 5852 5852 5851 5851 5850 5850 5850 5849 5849 5848 5847 5847 5846 5845 5844 5843 5842 5841 5840 5839 5838 5837 5835 5834 5832 5831 5829 5828 5827 5826 5825 5824 5823 5821 5820 5819 5817 5816 5814 5813 5812 5811 5810 5809 5808 5807 5805 5804 5802 5801 5800 5799 5798 5798 5796
5850 5850 5851 5852 5852 5852 5852 5852 5852 5852 5851 5851 5851 5851 5851 5851 5851 5851 5851 5850 5850 5849 5850 5850 5849 5849 5849 5849 5849 5848 5848 5848 5847 5847 5846 5846 5845 5844 5844 5842 5842 5841 5841 5840 5839 5838 5837 5836 5834 5833 5833 5832 5831 5829 5827 5826 5824 5823 5822 5821 5819 5818 5817 5815 5814 5812 5811 5809 5808 5807 5806 5804 5803 5802 5801 5800 5798 5797 5796 5794 5793 5792 5791 5791 5790
5846 5847 5848 5848 5848 5849 5849 5849 5849 5849 5848 5848 5848 5848 5847 5847 5847 5847 5848 5847 5847 5846 5846 5846 5845 5845 5845 5845 5845 5844 5844 5844 5843 5843 5842 5841 5841 5840 5839 5838 5836 5836 5835 5835 5833 5832 5831 5830 5829 5828 5827 5826 5825 5824 5822 5820 5818 5817 5816 5815 5813 5812 5811 5809 5807 5806 5804 5803 5801 5800 5798 5797 5795 5794 5793 5792 5791 5790 5789 5787 5786 5785 5784 5783 5782
5842 5843 5844 5845 5844 5844 5845 5845 5845 5845 5845 5845 5845 5845 5844 5844 5844 5844 5844 5844 5843 5843 5842 5842 5842 5841 5841 5841 5840 5840 5840 5840 5839 5839 5838 5837 5836 5835 5834 5833 5832 5831 5830 5829 5828 5827 5826 5824 5823 5822 5820 5819 5819 5817 5816 5813 5812 5811 5810 5808 5807 5806 5805 5803 5800 5799 5797 5795 5794 5793 5791 5790 5788 5787 5786 5785 5784 5783 5782 5780 5779 5778 5776 5775 5774
5837 5837 5839 5840 5840 5840 5840 5840 5840 5840 5840 5841 5841 5841 5841 5841 5840 5840 5840 5839 5839 5839 5839 5838 5838 5838 5837 5837 5836 5836 5836 5835 5835 5835 5834 5833 5832 5831 5829 5828 5826 5826 5825 5824 5823 5822 5820 5819 5817 5816 5814 5813 5811 5810 5809 5807 5806 5804 5803 5802 5800 5799 5797 5796 5793 5791 5790 5788 5787 5786 5784 5783 5781 5781 5779 5778 5777 5776 5774 5773 5771 5770 5768 5767 5765
5831 5831 5831 5832 5833 5834 5834 5835 5835 5835 5836 5836 5836 5836 5836 5836 5836 5836 5836 5835 5835 5835 5834 5834 5834 5833 5833 5833 5832 5832 5831 5831 5831 5830 5829 5828 5827 5826 5824 5823 5821 5820 5819 5818 5817 5816 5814 5813 5811 5810 5808 5806 5804 5803 5802 5801 5799 5798 5796 5795 5793 5791 5789 5788 5786 5784 5782 5781 5780 5778 5777 5776 5774 5773 5772 5771 5770 5768 5767 5765 5763 5761 5760 5758 5757
5827 5826 5826 5827 5827 5827 5827 5828 5829 5830 5830 5830 5831 5831 5831 5831 5832 5832 5831 5831 5831 5831 5830 5830 5830 5829 5829 5829 5828 5828 5827 5827 5826 5826 5825 5823 5822 5821 5820 5818 5817 5815 5814 5813 5811 5810 5808 5807 5805 5803 5801 5799 5798 5796 5795 5794 5792 5791 5789 5788 5786 5784 5782 5780 5778 5776 5775 5774 5772 5771 5769 5768 5767 5766 5764 5763 5761 5760 5758 5757 5755 5753 5751 5750 5748
5822 5822 5823 5823 5823 5823 5823 5823 5823 5824 5825 5825 5825 5825 5826 5826 5827 5827 5827 5827 5827 5826 5826 5826 5825 5825 5825 5825 5824 5824 5823 5823 5822 5821 5820 5819 5817 5816 5815 5814 5812 5811 5809 5808 5806 5804 5802 5800 5798 5796 5794 5793 5791 5790 5788 5787 5785 5784 5782 5781 5779 5777 5774 5773 5771 5769 5767 5765 5764 5763 5761 5760 5758 5757 5756 5754 5752 5751 5749 5747 5746 5744 5742 5741 5739
5818 5818 5818 5819 5819 5819 5820 5820 5820 5820 5821 5821 5821 5822 5822 5822 5823 5823 5823 5823 5822 5822 5822 5822 5821 5821 5821 5821 5820 5819 5819 5818 5818 5817 5816 5815 5813 5811 5810 5808 5807 5805 5804 5802 5800 5798 5796 5794 5791 5790 5788 5786 5784 5783 5781 5780 5778 5776 5775 5774 5772 5770 5768 5766 5764 5761 5759 5757 5755 5754 5752 5751 5749 5747 5746 5744 5743 5741 5739 5737 5735 5733 5732 5731 5730
5816 5815 5815 5816 5816 5816 5817 5817 5817 5817 5817 5817 5818 5818 5819 5819 5819 5819 5819 5818 5818 5818 5818 5817 5817 5818 5817 5817 5816 5815 5814 5813 5813 5812 5811 5810 5809 5807 5805 5803 5801 5800 5798 5796 5794 5792 5790 5787 5785 5783 5781 5779 5778 5776 5774 5772 5771 5769 5768 5767 5765 5763 5761 5759 5757 5754 5751 5749 5747 5745 5743 5741 5739 5737 5735 5734 5732 5731 5729 5726 5724 5722 5721 5720 5719
5813 5813 5813 5813 5813 5814 5814 5814 5814 5814 5814 5814 5815 5815 5815 5815 5815 5815 5815 5814 5814 5813 5813 5812 5812 5813 5812 5811 5810 5809 5808 5807 5807 5806 5806 5805 5803 5802 5800 5798 5796 5794 5792 5790 5788 5786 5783 5781 5779 5776 5774 5772 5770 5769 5767 5764 5762 5760 5759 5757 5756 5754 5752 5750 5748 5746 5743 5740 5738 5736 5734 5732 5729 5727 5725 5723 5722 5720 5718 5715 5713 5711 5710 5709 5708
5811 5811 5811 5811 5811 5811 5811 5811 5812 5812 5812 5812 5812 5812 5812 5812 5812 5811 5811 5811 5810 5810 5809 5808 5808 5808 5807 5806 5805 5803 5802 5801 5801 5800 5799 5798 5797 5795 5794 5792 5790 5788 5786 5784 5782 5780 5778 5775 5772 5769 5766 5764 5762 5761 5758 5756 5754 5751 5749 5748 5746 5744 5743 5740 5738 5736 5733 5731 5729 5726 5724 5722 5719 5716 5714 5712 5711 5709 5706 5703 5701 5700 5699 5698 5696
5808 5808 5808 5809 5809 5809 5809 5809 5809 5809 5809 5809 5809 5809 5809 5809 5809 5808 5808 5807 5807 5806 5806 5805 5804 5804 5803 5802 5801 5799 5797 5796 5796 5794 5793 5791 5790 5788 5787 5785 5783 5781 5779 5777 5775 5773 5771 5768 5765 5762 5759 5756 5754 5751 5749 5747 5745 5742 5740 5738 5736 5734 5732 5730 5728 5725 5722 5720 5718 5715 5713 5710 5708 5705 5703 5702 5700 5698 5695 5692 5690 5689 5688 5687 5685
5805 5805 5806 5806 5806 5806 5806 5806 5806 5806 5806 5806 5806 5806 5806 5805 5805 5805 5805 5804 5803 5803 5802 5801 5801 5800 5799 5798 5796 5794 5792 5791 5790 5789 5787 5785 5784 5781 5779 5778 5776 5774 5771 5769 5767 5765 5763 5760 5757 5754 5750 5747 5744 5741 5739 5736 5734 5732 5729 5727 5725 5723 5721 5718 5716 5713 5710 5708 5705 5703 5700 5697 5695 5693 5691 5690 5688 5686 5684 5681 5679 5677 5676 5675 5674
5803 5803 5803 5804 5804 5804 5804 5804 5803 5803 5803 5803 5803 5803 5802 5802 5802 5801 5801 5800 5799 5799 5798 5797 5796 5795 5794 5792 5790 5789 5787 5785 5784 5782 5781 5779 5777 5775 5773 5771 5769 5767 5765 5762 5760 5758 5755 5752 5749 5745 5741 5738 5734 5731 5728 5726 5724 5721 5719 5716 5714 5711 5708 5706 5703 5700 5698 5695 5692 5690 5687 5684 5682 5681 5679 5677 5676 5674 5671 5669 5667 5665 5664 5663 5662
5801 5801 5801 5801 5801 5801 5801 5801 5801 5801 5800 5800 5800 5799 5799 5799 5798 5797 5797 5796 5795 5794 5793 5792 5791 5790 5788 5786 5784 5783 5781 5779 5777 5776 5774 5772 5770 5768 5766 5764 5762 5760 5758 5755 5753 5750 5747 5744 5741 5737 5733 5729 5725 5722 5719 5717 5714 5711 5709 5707 5704 5701 5698 5695 5693 5690 5687 5684 5682 5679 5676 5673 5670 5668 5667 5665 5664 5662 5660 5658 5656 5654 5652 5651 5650
5799 5798 5798 5798 5798 5798 5798 5798 5798 5797 5797 5797 5796 5796 5796 5795 5794 5793 5792 5791 5790 5789 5788 5787 5786 5784 5782 5780 5779 5777 5775 5773 5771 5769 5768 5765 5763 5761 5758 5756 5754 5752 5749 5747 5744 5742 5739 5735 5732 5728 5724 5720 5717 5713 5710 5707 5705 5702 5699 5697 5694 5691 5689 5686 5683 5680 5678 5675 5672 5669 5666 5663 5660 5658 5656 5654 5652 5650 5648 5646 5645 5643 5641 5640 5639
5797 5796 5796 5796 5796 5796 5795 5795 5795 5794 5794 5793 5793 5792 5792 5791 5790 5789 5788 5786 5785 5784 5783 5782 5780 5779 5777 5775 5773 5771 5769 5767 5765 5763 5761 5758 5756 5753 5750 5748 5746 5743 5741 5738 5735 5732 5729 5726 5722 5719 5715 5711 5708 5704 5700 5697 5695 5692 5689 5687 5684 5681 5679 5676 5673 5670 5668 5665 5662 5659 5656 5653 5650 5648 5645 5643 5641 5639 5637 5635 5633 5632 5630 5629 5627
5795 5794 5794 5794 5793 5793 5793 5792 5791 5791 5790 5790 5789 5788 5788 5787 5786 5785 5783 5782 5780 5779 5778 5776 5775 5773 5771 5769 5767 5765 5762 5760 5758 5755 5753 5751 5748 5745 5743 5740 5737 5735 5732 5729 5726 5723 5720 5717 5713 5710 5706 5702 5698 5694 5691 5688 5685 5682 5680 5677 5675 5672 5669 5667 5664 5661 5658 5655 5652 5649 5646 5643 5640 5638 5635 5633 5631 5629 5626 5624 5622 5621 5619 5618 5617
5792 5792 5792 5791 5791 5790 5789 5789 5788 5787 5786 5786 5786 5785 5783 5782 5781 5780 5779 5777 5775 5774 5772 5771 5769 5767 5765 5763 5761 5758 5756 5753 5751 5748 5746 5743 5740 5738 5735 5732 5729 5726 5723 5720 5717 5714 5711 5707 5704 5700 5696 5693 5689 5686 5683 5680 5677 5674 5671 5669 5666 5663 5660 5658 5655 5651 5648 5646 5643 5640 5637 5634 5631 5628 5625 5622 5620 5618 5616 5614 5612 5611 5609 5608 5607
5790 5789 5789 5789 5788 5787 5786 5785 5784 5783 5782 5782 5781 5780 5779 5777 5776 5775 5773 5772 5770 5769 5767 5765 5763 5761 5759 5757 5755 5752 5750 5747 5744 5741 5738 5735 5732 5729 5727 5724 5721 5718 5714 5711 5708 5705 5702 5698 5694 5690 5687 5684 5681 5678 5675 5672 5669 5666 5663 5660 5657 5655 5652 5649 5645 5642 5639 5636 5633 5630 5627 5624 5620 5617 5614 5612 5609 5607 5605 5604 5602 5600 5599 5598 5597
5786 5786 5786 5785 5785 5784 5783 5782 5781 5779 5778 5777 5776 5775 5774 5772 5771 5769 5768 5766 5765 5763 5761 5759 5757 5755 5753 5751 5748 5746 5743 5740 5737 5734 5731 5728 5724 5721 5718 5715 5712 5709 5706 5703 5700 5696 5693 5689 5685 5682 5679 5676 5673 5670 5668 5665 5661 5658 5655 5652 5649 5646 5643 5640 5637 5634 5630 5627 5623 5620 5616 5613 5609 5606 5602 5600 5597 5595 5594 5593 5592 5590 5589 5588 5587
5782 5782 5782 5781 5781 5780 5778 5778 5776 5775 5773 5772 5771 5769 5769 5767 5766 5765 5763 5761 5759 5757 5755 5753 5751 5749 5746 5744 5741 5738 5735 5732 5729 5726 5722 5719 5715 5712 5709 5706 5703 5700 5697 5694 5691 5688 5684 5680 5677 5674 5671 5668 5665 5663 5660 5657 5653 5650 5647 5644 5642 5639 5636 5633 5629 5626 5622 5618 5613 5609 5605 5601 5597 5594 5591 5589 5587 5585 5584 5583 5582 5581 5581 5580 5579
5778 5778 5777 5777 5776 5775 5774 5773 5772 5770 5769 5767 5766 5764 5763 5762 5761 5759 5757 5756 5754 5752 5750 5748 5746 5743 5741 5738 5735 5732 5729 5725 5722 5718 5714 5711 5707 5703 5700 5697 5694 5691 5688 5685 5682 5679 5676 5673 5670 5667 5664 5661 5658 5655 5652 5649 5646 5642 5640 5638 5635 5632 5629 5626 5622 5618 5613 5609 5604 5599 5596 5592 5589 5586 5583 5581 5579 5577 5576 5576 5575 5574 5573 5573 5572
5774 5773 5773 5772 5771 5770 5769 5768 5767 5765 5764 5763 5761 5759 5758 5756 5755 5753 5751 5750 5748 5746 5745 5743 5740 5738 5735 5732 5729 5726 5723 5719 5715 5711 5707 5703 5699 5696 5692 5689 5686 5683 5679 5677 5674 5671 5669 5666 5663 5660 5657 5654 5652 5649 5646 5642 5639 5636 5634 5632 5629 5626 5622 5618 5614 5609 5605 5600 5596 5592 5588 5586 5583 5580 5578 5576 5574 5573 5571 5570 5569 5568 5568 5567 5566